SCP
0 0 0 0 0 -0 -0 0 0 0 0 0 0 0 0 0 1 1 0 0 0 1 1 0 0 0 0 0 0 0 0 -0 -0 0 0 0 0 0 0 -0 -0 -0 -0
0 0 0 0 0 0 0 0 0 0 0 0 0 0 0 0 1 0 0 1 0 0 0 0 0 0 0 0 0 0 0 0 0 0 0 0 0 0 0 0 0 0 0
0 0 0 0 0 0 0 0 0 0 0 0 0 0 0 1 0 2 1 1 1 1 1 1 0 0 -0 -0 -0 0 0 0 0 0 0 0 0 0 0 0 0 0 0
0 0 0 0 0 0 0 0 0 0 0 0 0 0 0 1 2 2 1 1 2 1 1 1 0 0 0 0 0 0 0 0 0 0 0 0 0 0 0 0 0 0 0
0 1 1 1 0 0 1 0 0 0 0 1 0 0 0 1 2 2 2 2 3 2 1 1 1 0 0 0 0 0 0 0 0 0 0 0 0 0 0 0 0 0 0
0 0 0 0 0 0 1 1 1 1 1 1 1 1 1 2 3 3 3 3 2 2 1 1 1 1 0 0 0 -0 0 0 0 0 0 0 0 0 0 0 0 0 0
0 0 0 0 0 0 0 0 0 1 1 1 1 1 2 2 2 2 5 4 2 2 2 2 1 0 1 0 0 0 0 0 0 0 0 0 0 0 0 0 0 0 0
0 0 0 0 0 0 0 0 0 0 0 0 1 1 2 1 1 3 5 5 2 1 2 2 1 0 1 1 1 1 0 0 0 0 0 0 0 0 0 0 0 0 0
0 0 0 0 0 0 0 0 0 0 0 0 0 0 3 3 2 2 2 0 0 0 1 2 1 1 1 0 0 0 0 0 0 0 0 0 0 0 0 0 0 0 0
0 0 0 0 0 0 0 0 0 0 0 0 0 0 0 2 1 1 1 1 0 0 1 1 1 1 1 0 0 -0 -0 0 0 0 0 0 0 0 0 0 0 0 0
0 0 0 0 0 0 0 0 0 0 0 0 0 0 0 0 1 1 1 1 1 1 0 1 1 1 2 1 0 0 0 0 0 0 0 0 0 0 0 0 0 0 0
0 0 0 0 0 0 0 0 0 0 0 0 0 0 0 0 0 0 1 1 1 1 0 0 0 1 1 1 1 0 -0 0 0 0 0 0 0 0 0 0 0 0 0
0 0 0 0 0 0 0 0 0 0 0 0 0 0 0 0 0 0 0 0 1 1 1 0 0 0 1 1 1 0 -0 0 0 0 0 0 0 0 0 0 0 0 0
0 0 0 0 0 0 0 0 0 0 0 0 0 0 0 0 0 0 0 0 0 1 1 0 0 0 0 0 1 0 0 0 0 0 0 0 0 0 0 0 0 0 0
0 0 0 0 0 0 0 0 0 0 0 0 0 0 0 0 0 0 0 0 0 0 1 1 1 0 0 0 0 0 0 0 0 0 0 0 0 0 0 0 0 0 0
0 0 0 0 0 0 0 -0 -0 -0 0 0 0 0 0 0 0 0 0 0 0 0 0 0 1 0 0 0 0 0 0 0 0 0 0 0 0 0 0 0 0 0 0
0 0 0 0 0 0 -0 0 -0 -0 -0 0 0 0 0 0 0 0 0 0 0 0 0 0 0 0 0 0 0 0 0 0 0 0 0 0 0 0 0 0 0 0 0
0 0 0 0 0 0 -0 0 0 0 0 -0 0 0 0 0 0 0 0 0 0 0 0 0 1 0 0 0 0 0 0 0 0 0 0 0 0 0 0 0 0 0 0
0 0 0 0 0 0 0 -0 0 0 0 0 0 0 0 0 0 0 0 0 0 0 0 0 0 0 0 0 0 0 0 0 0 0 0 0 0 0 0 0 0 0 0
0 0 0 0 0 0 0 0 -0 0 0 -0 0 -0 -0 0 0 0 0 0 0 0 0 0 0 0 0 0 0 0 0 0 0 0 0 0 0 0 0 0 0 0 0
0 0 0 0 0 0 0 0 -0 -0 -0 -0 -0 -0 -0 0 0 0 0 0 0 0 0 0 0 0 0 0 0 0 0 0 0 0 0 0 0 0 0 0 0 0 0
0 0 0 0 0 0 0 0 0 -0 -0 -0 -0 -0 0 0 0 0 0 0 0 0 0 0 0 0 0 0 0 0 0 0 0 0 0 0 0 0 0 0 0 0 0
0 0 0 0 0 0 0 0 0 -0 -0 -0 -0 -0 0 0 0 0 0 0 0 0 0 0 0 0 0 0 0 0 0 0 0 0 0 0 0 0 0 0 0 0 0
0 0 0 0 0 0 0 0 0 0 0 0 0 0 0 0 0 0 0 0 0 0 0 0 0 0 0 0 0 0 0 0 0 0 0 0 0 0 0 0 0 0 0
0 0 0 0 0 0 0 0 0 0 -0 0 0 0 0 0 0 0 0 0 0 0 0 0 0 0 0 0 0 0 0 0 0 0 0 0 0 0 0 0 0 0 0
0 0 0 0 0 0 0 0 0 0 0 0 0 0 0 0 0 0 0 0 0 0 0 0 0 0 0 0 0 0 0 0 0 0 0 0 0 0 0 0 0 0 0
Wind_Speed_500mb
19 22 23 27 26 28 25 23 26 26 29 30 25 36 23 27 26 19 26 39 27 19 22 13 13 8 7 9 12 8 7 7 9 8 5 3 3 3 5 7 11 14 16
25 29 24 23 26 27 28 31 30 34 33 36 33 28 28 32 37 32 5 30 30 29 18 15 14 16 11 10 10 7 10 14 13 11 8 8 6 6 6 7 9 9 8
30 27 28 27 28 28 31 35 37 38 37 34 34 41 36 41 27 22 19 23 36 28 30 26 20 18 17 13 10 11 12 16 17 14 11 11 11 10 11 11 11 12 12
22 26 29 25 25 31 36 37 37 39 40 41 40 41 37 37 34 38 37 22 28 34 33 23 27 21 22 20 16 14 15 16 13 14 15 15 14 14 16 16 17 17 16
36 30 21 25 35 36 34 34 36 38 43 42 42 40 40 40 45 46 29 25 32 38 33 33 35 30 32 31 25 20 17 15 13 14 15 16 16 17 18 20 21 22 22
34 35 36 32 33 34 33 33 37 43 45 46 47 45 49 48 41 39 51 47 45 40 43 48 50 43 41 40 34 27 21 18 16 16 17 15 15 16 18 17 18 23 21
28 37 40 44 45 37 41 41 45 44 45 45 55 64 57 51 52 57 68 67 50 45 43 53 56 55 51 48 43 37 33 23 17 17 19 19 17 17 17 17 17 20 20
37 36 42 47 51 54 57 54 44 47 52 49 53 53 59 67 60 47 72 61 41 43 47 57 61 61 57 47 48 43 42 35 23 21 22 24 22 20 18 16 18 19 21
29 28 34 35 42 54 59 68 67 58 61 62 44 33 22 24 30 40 50 54 61 53 56 58 63 63 60 55 53 45 48 42 33 27 26 26 25 23 20 19 19 21 20
32 27 33 41 44 43 46 48 55 59 61 73 73 51 48 46 48 49 56 58 50 57 62 66 63 72 67 66 63 60 53 47 42 38 31 28 28 26 24 23 21 20 20
24 32 41 49 49 47 47 51 54 54 57 65 74 78 73 78 65 59 65 60 65 64 67 72 71 61 70 73 72 79 62 55 50 45 36 31 32 30 28 27 25 23 21
36 40 48 49 52 52 53 54 55 56 59 63 69 73 76 66 77 68 71 76 71 76 80 80 86 85 63 72 86 83 77 64 55 52 45 39 37 34 31 31 30 28 25
39 47 50 51 51 53 53 53 57 59 59 58 60 66 71 66 70 77 79 84 78 80 77 76 76 93 89 71 67 78 77 65 57 54 52 46 41 39 35 35 35 34 31
39 46 49 48 49 50 53 54 55 57 59 63 65 66 69 71 73 71 72 83 77 72 80 79 67 74 77 94 72 72 75 75 65 61 57 51 45 42 39 36 37 36 38
40 46 51 53 51 53 55 58 59 60 59 60 64 68 71 69 61 61 63 66 79 86 72 80 89 82 77 66 81 81 73 75 72 66 65 59 50 44 39 39 38 39 41
55 52 54 56 61 64 67 71 71 66 66 67 73 70 72 76 74 75 81 66 68 84 96 86 68 79 73 67 66 87 89 77 74 64 63 58 48 42 40 42 39 40 39
49 58 66 66 61 67 64 73 76 72 76 80 79 82 82 81 83 82 76 77 85 74 86 93 94 85 69 52 66 78 81 86 83 69 58 49 47 44 44 45 39 38 38
48 44 53 67 62 66 65 66 66 85 88 96 95 98 96 88 86 76 78 82 88 81 88 98 80 97 85 57 71 78 88 88 78 67 52 52 52 53 47 44 36 38 40
48 49 57 59 64 65 68 64 83 92 98 100 101 103 98 91 90 86 78 87 84 80 82 82 90 73 68 79 82 82 93 85 69 65 52 60 56 57 50 42 35 36 38
46 47 57 61 63 62 63 79 94 100 103 100 103 102 96 89 88 86 86 85 86 89 86 91 85 71 89 75 91 102 83 74 69 67 65 59 55 48 46 38 34 35 34
38 46 53 64 64 62 60 79 94 100 106 98 106 109 102 92 82 85 94 95 83 84 85 90 84 92 75 92 104 97 87 81 74 71 71 61 54 43 41 29 30 28 29
38 49 54 67 71 65 67 72 88 95 102 95 106 106 101 94 89 85 80 86 95 93 80 79 85 70 82 91 91 103 93 87 68 78 76 63 46 40 30 28 31 25 23
41 49 57 62 76 68 69 74 85 88 98 95 96 98 96 100 104 91 77 71 72 86 103 90 73 91 86 79 90 93 93 91 88 80 79 61 45 35 30 34 27 29 29
42 49 57 61 66 71 69 77 84 82 91 95 87 91 95 111 99 79 54 56 61 60 68 99 110 82 80 87 100 105 106 94 70 68 64 59 49 42 29 29 28 31 33
46 48 56 62 66 66 70 77 82 82 87 94 90 93 91 102 89 57 39 45 56 60 59 74 87 92 83 84 81 81 79 83 69 62 56 51 48 40 36 34 34 32 26
53 47 67 61 66 64 73 76 77 80 80 89 96 97 88 91 85 50 32 36 43 59 61 55 64 83 76 74 78 67 59 58 59 44 53 51 40 40 32 33 32 27 22
Wind_Direction_500mb
278 270 265 262 258 262 270 274 284 285 275 286 292 299 318 300 292 290 273 301 297 307 315 314 301 306 286 286 300 283 259 296 305 304 299 322 298 258 237 235 239 245 251
266 248 259 273 283 282 280 278 274 275 274 267 271 281 280 277 283 270 281 278 299 317 301 293 304 302 286 279 294 268 261 285 294 283 279 274 272 276 236 232 256 260 249
289 272 273 272 265 266 272 273 274 280 284 291 290 285 283 281 297 271 254 293 284 300 294 283 256 288 274 267 267 245 254 278 281 260 249 268 276 261 261 255 248 254 260
266 285 298 290 285 282 274 275 277 276 273 272 276 277 272 278 277 267 273 272 273 288 276 269 257 263 266 266 256 255 266 282 266 252 244 246 253 264 269 265 262 256 252
233 243 257 270 262 269 271 275 277 276 279 279 277 277 274 272 267 272 263 269 253 274 281 279 255 257 265 266 253 249 260 273 255 238 244 251 257 260 264 270 269 263 257
244 246 247 246 245 250 256 255 266 272 267 267 268 260 257 261 260 261 261 261 254 249 259 262 261 258 255 264 239 241 242 256 260 247 243 244 256 266 270 268 269 266 258
270 260 260 260 265 268 259 257 256 260 263 275 282 276 272 269 265 260 255 261 245 242 245 245 252 261 257 257 247 253 250 241 237 242 243 250 259 262 269 272 269 269 264
284 290 285 280 273 265 270 280 283 262 253 255 272 280 277 272 257 271 251 243 238 248 248 241 248 254 259 251 251 250 249 249 245 239 242 254 259 265 269 271 264 262 264
319 320 311 291 279 275 280 275 280 286 279 258 278 301 291 271 291 267 264 273 313 255 238 250 250 248 253 257 256 253 247 243 250 250 247 251 257 265 269 269 264 262 263
348 341 310 301 306 301 296 289 276 281 283 279 277 261 276 292 286 285 274 281 273 240 232 232 241 242 246 252 252 255 254 239 255 250 248 253 256 262 268 266 265 260 257
347 327 310 316 318 314 306 301 298 294 290 290 282 282 278 279 281 287 281 269 259 261 240 235 228 239 243 240 242 253 250 247 252 246 248 253 257 263 267 265 259 256 259
344 329 326 326 324 321 318 313 308 301 296 294 292 289 285 284 279 282 285 278 270 265 260 254 243 229 235 241 240 250 248 249 246 247 247 251 252 259 263 262 262 260 260
349 342 341 339 334 328 323 317 310 306 302 299 295 291 289 287 281 275 273 278 272 268 265 260 253 243 242 236 242 243 245 245 244 246 246 247 249 254 259 260 264 266 267
1 346 353 350 346 341 338 333 325 318 309 302 297 292 291 292 287 281 279 269 286 274 262 252 257 247 249 237 234 245 239 238 239 245 246 243 246 250 258 259 264 271 273
355 348 355 0 359 352 347 344 337 330 322 314 304 296 287 279 280 282 279 277 273 272 276 255 254 257 253 244 236 232 237 237 241 246 248 245 245 250 257 262 267 272 275
348 349 350 351 354 354 353 351 345 340 335 328 320 312 297 288 282 278 269 261 268 267 271 264 261 255 251 249 231 231 231 236 239 242 246 240 242 251 261 265 270 273 276
348 346 346 346 348 351 349 342 344 342 331 327 324 320 311 304 291 281 271 272 260 264 265 268 263 258 240 227 214 224 229 231 235 240 236 235 241 252 260 264 269 273 272
350 351 341 336 344 344 348 336 333 333 332 332 330 327 319 311 301 284 274 266 265 263 262 264 258 248 251 225 235 226 234 228 232 240 229 240 243 254 256 259 263 267 269
346 350 338 342 338 342 342 343 334 335 334 331 331 327 322 315 303 295 278 268 260 261 259 265 252 254 234 218 222 224 225 229 237 227 236 236 238 247 247 253 255 263 267
352 351 342 342 331 339 339 335 339 338 337 334 333 328 321 315 303 298 287 272 262 256 258 256 250 249 235 236 225 220 213 223 220 228 232 230 234 238 247 247 251 257 265
355 353 342 333 339 336 336 332 339 338 339 336 337 333 326 318 297 286 277 275 263 256 254 253 249 235 238 223 212 213 221 220 216 225 225 229 233 238 238 246 251 261 264
4 356 340 334 335 340 336 337 340 339 341 340 343 337 328 322 314 297 280 270 260 246 247 246 243 238 225 223 226 218 213 204 200 218 222 227 228 230 229 243 251 257 255
4 352 340 337 334 338 337 339 342 341 344 345 348 343 339 340 325 301 285 273 263 244 236 241 245 220 220 228 230 209 203 209 212 216 212 217 219 232 243 252 249 259 269
0 348 339 334 332 335 340 344 343 343 347 351 351 349 352 344 334 306 282 269 263 259 252 232 235 240 249 241 228 229 219 211 201 208 207 210 211 225 227 235 238 251 267
355 345 335 335 335 338 345 348 347 347 349 354 355 356 356 359 349 318 272 271 252 250 244 241 236 239 228 215 204 199 190 187 185 190 190 200 196 204 218 225 232 251 266
348 335 340 343 347 349 351 350 352 351 350 355 359 0 357 4 5 328 276 261 265 261 264 236 228 220 215 201 196 186 178 188 181 177 194 197 178 180 192 217 229 242 263
Wind_Speed_850mb
19 22 23 27 26 28 25 23 26 26 29 30 25 36 23 27 26 19 26 39 27 19 22 13 13 8 7 9 12 8 7 7 9 8 5 3 3 3 5 7 11 14 16
25 29 24 23 26 27 28 31 30 34 33 36 33 28 28 32 37 32 5 30 30 29 18 15 14 16 11 10 10 7 10 14 13 11 8 8 6 6 6 7 9 9 8
30 27 28 27 28 28 31 35 37 38 37 34 34 41 36 41 27 22 19 23 36 28 30 26 20 18 17 13 10 11 12 16 17 14 11 11 11 10 11 11 11 12 12
22 26 29 25 25 31 36 37 37 39 40 41 40 41 37 37 34 38 37 22 28 34 33 23 27 21 22 20 16 14 15 16 13 14 15 15 14 14 16 16 17 17 16
36 30 21 25 35 36 34 34 36 38 43 42 42 40 40 40 45 46 29 25 32 38 33 33 35 30 32 31 25 20 17 15 13 14 15 16 16 17 18 20 21 22 22
34 35 36 32 33 34 33 33 37 43 45 46 47 45 49 48 41 39 51 47 45 40 43 48 50 43 41 40 34 27 21 18 16 16 17 15 15 16 18 17 18 23 21
28 37 40 44 45 37 41 41 45 44 45 45 55 64 57 51 52 57 68 67 50 45 43 53 56 55 51 48 43 37 33 23 17 17 19 19 17 17 17 17 17 20 20
37 36 42 47 51 54 57 54 44 47 52 49 53 53 59 67 60 47 72 61 41 43 47 57 61 61 57 47 48 43 42 35 23 21 22 24 22 20 18 16 18 19 21
29 28 34 35 42 54 59 68 67 58 61 62 44 33 22 24 30 40 50 54 61 53 56 58 63 63 60 55 53 45 48 42 33 27 26 26 25 23 20 19 19 21 20
32 27 33 41 44 43 46 48 55 59 61 73 73 51 48 46 48 49 56 58 50 57 62 66 63 72 67 66 63 60 53 47 42 38 31 28 28 26 24 23 21 20 20
24 32 41 49 49 47 47 51 54 54 57 65 74 78 73 78 65 59 65 60 65 64 67 72 71 61 70 73 72 79 62 55 50 45 36 31 32 30 28 27 25 23 21
36 40 48 49 52 52 53 54 55 56 59 63 69 73 76 66 77 68 71 76 71 76 80 80 86 85 63 72 86 83 77 64 55 52 45 39 37 34 31 31 30 28 25
39 47 50 51 51 53 53 53 57 59 59 58 60 66 71 66 70 77 79 84 78 80 77 76 76 93 89 71 67 78 77 65 57 54 52 46 41 39 35 35 35 34 31
39 46 49 48 49 50 53 54 55 57 59 63 65 66 69 71 73 71 72 83 77 72 80 79 67 74 77 94 72 72 75 75 65 61 57 51 45 42 39 36 37 36 38
40 46 51 53 51 53 55 58 59 60 59 60 64 68 71 69 61 61 63 66 79 86 72 80 89 82 77 66 81 81 73 75 72 66 65 59 50 44 39 39 38 39 41
55 52 54 56 61 64 67 71 71 66 66 67 73 70 72 76 74 75 81 66 68 84 96 86 68 79 73 67 66 87 89 77 74 64 63 58 48 42 40 42 39 40 39
49 58 66 66 61 67 64 73 76 72 76 80 79 82 82 81 83 82 76 77 85 74 86 93 94 85 69 52 66 78 81 86 83 69 58 49 47 44 44 45 39 38 38
48 44 53 67 62 66 65 66 66 85 88 96 95 98 96 88 86 76 78 82 88 81 88 98 80 97 85 57 71 78 88 88 78 67 52 52 52 53 47 44 36 38 40
48 49 57 59 64 65 68 64 83 92 98 100 101 103 98 91 90 86 78 87 84 80 82 82 90 73 68 79 82 82 93 85 69 65 52 60 56 57 50 42 35 36 38
46 47 57 61 63 62 63 79 94 100 103 100 103 102 96 89 88 86 86 85 86 89 86 91 85 71 89 75 91 102 83 74 69 67 65 59 55 48 46 38 34 35 34
38 46 53 64 64 62 60 79 94 100 106 98 106 109 102 92 82 85 94 95 83 84 85 90 84 92 75 92 104 97 87 81 74 71 71 61 54 43 41 29 30 28 29
38 49 54 67 71 65 67 72 88 95 102 95 106 106 101 94 89 85 80 86 95 93 80 79 85 70 82 91 91 103 93 87 68 78 76 63 46 40 30 28 31 25 23
41 49 57 62 76 68 69 74 85 88 98 95 96 98 96 100 104 91 77 71 72 86 103 90 73 91 86 79 90 93 93 91 88 80 79 61 45 35 30 34 27 29 29
42 49 57 61 66 71 69 77 84 82 91 95 87 91 95 111 99 79 54 56 61 60 68 99 110 82 80 87 100 105 106 94 70 68 64 59 49 42 29 29 28 31 33
46 48 56 62 66 66 70 77 82 82 87 94 90 93 91 102 89 57 39 45 56 60 59 74 87 92 83 84 81 81 79 83 69 62 56 51 48 40 36 34 34 32 26
53 47 67 61 66 64 73 76 77 80 80 89 96 97 88 91 85 50 32 36 43 59 61 55 64 83 76 74 78 67 59 58 59 44 53 51 40 40 32 33 32 27 22
Wind_Direction_850mb
278 270 265 262 258 262 270 274 284 285 275 286 292 299 318 300 292 290 273 301 297 307 315 314 301 306 286 286 300 283 259 296 305 304 299 322 298 258 237 235 239 245 251
266 248 259 273 283 282 280 278 274 275 274 267 271 281 280 277 283 270 281 278 299 317 301 293 304 302 286 279 294 268 261 285 294 283 279 274 272 276 236 232 256 260 249
289 272 273 272 265 266 272 273 274 280 284 291 290 285 283 281 297 271 254 293 284 300 294 283 256 288 274 267 267 245 254 278 281 260 249 268 276 261 261 255 248 254 260
266 285 298 290 285 282 274 275 277 276 273 272 276 277 272 278 277 267 273 272 273 288 276 269 257 263 266 266 256 255 266 282 266 252 244 246 253 264 269 265 262 256 252
233 243 257 270 262 269 271 275 277 276 279 279 277 277 274 272 267 272 263 269 253 274 281 279 255 257 265 266 253 249 260 273 255 238 244 251 257 260 264 270 269 263 257
244 246 247 246 245 250 256 255 266 272 267 267 268 260 257 261 260 261 261 261 254 249 259 262 261 258 255 264 239 241 242 256 260 247 243 244 256 266 270 268 269 266 258
270 260 260 260 265 268 259 257 256 260 263 275 282 276 272 269 265 260 255 261 245 242 245 245 252 261 257 257 247 253 250 241 237 242 243 250 259 262 269 272 269 269 264
284 290 285 280 273 265 270 280 283 262 253 255 272 280 277 272 257 271 251 243 238 248 248 241 248 254 259 251 251 250 249 249 245 239 242 254 259 265 269 271 264 262 264
319 320 311 291 279 275 280 275 280 286 279 258 278 301 291 271 291 267 264 273 313 255 238 250 250 248 253 257 256 253 247 243 250 250 247 251 257 265 269 269 264 262 263
348 341 310 301 306 301 296 289 276 281 283 279 277 261 276 292 286 285 274 281 273 240 232 232 241 242 246 252 252 255 254 239 255 250 248 253 256 262 268 266 265 260 257
347 327 310 316 318 314 306 301 298 294 290 290 282 282 278 279 281 287 281 269 259 261 240 235 228 239 243 240 242 253 250 247 252 246 248 253 257 263 267 265 259 256 259
344 329 326 326 324 321 318 313 308 301 296 294 292 289 285 284 279 282 285 278 270 265 260 254 243 229 235 241 240 250 248 249 246 247 247 251 252 259 263 262 262 260 260
349 342 341 339 334 328 323 317 310 306 302 299 295 291 289 287 281 275 273 278 272 268 265 260 253 243 242 236 242 243 245 245 244 246 246 247 249 254 259 260 264 266 267
1 346 353 350 346 341 338 333 325 318 309 302 297 292 291 292 287 281 279 269 286 274 262 252 257 247 249 237 234 245 239 238 239 245 246 243 246 250 258 259 264 271 273
355 348 355 0 359 352 347 344 337 330 322 314 304 296 287 279 280 282 279 277 273 272 276 255 254 257 253 244 236 232 237 237 241 246 248 245 245 250 257 262 267 272 275
348 349 350 351 354 354 353 351 345 340 335 328 320 312 297 288 282 278 269 261 268 267 271 264 261 255 251 249 231 231 231 236 239 242 246 240 242 251 261 265 270 273 276
348 346 346 346 348 351 349 342 344 342 331 327 324 320 311 304 291 281 271 272 260 264 265 268 263 258 240 227 214 224 229 231 235 240 236 235 241 252 260 264 269 273 272
350 351 341 336 344 344 348 336 333 333 332 332 330 327 319 311 301 284 274 266 265 263 262 264 258 248 251 225 235 226 234 228 232 240 229 240 243 254 256 259 263 267 269
346 350 338 342 338 342 342 343 334 335 334 331 331 327 322 315 303 295 278 268 260 261 259 265 252 254 234 218 222 224 225 229 237 227 236 236 238 247 247 253 255 263 267
352 351 342 342 331 339 339 335 339 338 337 334 333 328 321 315 303 298 287 272 262 256 258 256 250 249 235 236 225 220 213 223 220 228 232 230 234 238 247 247 251 257 265
355 353 342 333 339 336 336 332 339 338 339 336 337 333 326 318 297 286 277 275 263 256 254 253 249 235 238 223 212 213 221 220 216 225 225 229 233 238 238 246 251 261 264
4 356 340 334 335 340 336 337 340 339 341 340 343 337 328 322 314 297 280 270 260 246 247 246 243 238 225 223 226 218 213 204 200 218 222 227 228 230 229 243 251 257 255
4 352 340 337 334 338 337 339 342 341 344 345 348 343 339 340 325 301 285 273 263 244 236 241 245 220 220 228 230 209 203 209 212 216 212 217 219 232 243 252 249 259 269
0 348 339 334 332 335 340 344 343 343 347 351 351 349 352 344 334 306 282 269 263 259 252 232 235 240 249 241 228 229 219 211 201 208 207 210 211 225 227 235 238 251 267
355 345 335 335 335 338 345 348 347 347 349 354 355 356 356 359 349 318 272 271 252 250 244 241 236 239 228 215 204 199 190 187 185 190 190 200 196 204 218 225 232 251 266
348 335 340 343 347 349 351 350 352 351 350 355 359 0 357 4 5 328 276 261 265 261 264 236 228 220 215 201 196 186 178 188 181 177 194 197 178 180 192 217 229 242 263